Location: Newark
(49.8969°N, 3.3422°E)
Time: 00:04:24
(UTC+00:00)

Vanguard 1 Rocket - All Passes

Search period start: 20 January 2020 00:00
Search period end: 30 January 2020 00:00
Orbit: 650 x 4226 km, 34.3° (Epoch: 18 January)

Date Brightness Start Highest point End Pass type
(mag) Time Alt. Az. Time Alt. Az. Time Alt. Az.
20 Jan - 08:39:56 10° SSE 08:45:08 15° SE 08:51:58 10° E daylight
20 Jan - 10:58:44 10° SW 11:09:07 38° SSE 11:27:01 10° E daylight
20 Jan - 13:22:13 10° WSW 13:36:24 48° S 13:59:08 10° ESE daylight
20 Jan - 15:48:26 10° W 16:05:22 37° SSW 16:27:15 10° SSE daylight
20 Jan - 18:20:50 10° W 18:33:13 17° SW 18:46:19 10° SSW visible
21 Jan - 09:49:23 10° SSW 09:57:43 29° SE 10:11:20 10° E daylight
21 Jan - 12:11:29 10° WSW 12:23:31 46° S 12:44:15 10° ESE daylight
21 Jan - 14:36:22 10° W 14:51:53 42° SSW 15:14:30 10° SE daylight
21 Jan - 17:04:58 10° W 17:20:26 25° SW 17:38:25 10° S visible
22 Jan - 08:41:14 10° S 08:47:03 18° SE 08:55:12 10° E daylight
22 Jan - 11:01:17 10° SW 11:11:19 40° SSE 11:28:58 10° ESE daylight
22 Jan - 13:25:01 10° WSW 13:38:37 45° S 14:00:37 10° SE daylight
22 Jan - 15:51:31 10° W 16:07:15 32° SSW 16:27:46 10° SSE daylight
22 Jan - 18:27:37 10° WSW 18:34:44 12° SW 18:42:10 10° SW visible
23 Jan - 09:51:43 10° SSW 09:59:51 31° SSE 10:13:34 10° E daylight
23 Jan - 12:14:14 10° WSW 12:25:48 45° S 12:45:57 10° ESE daylight
23 Jan - 14:39:18 10° W 14:53:59 38° SSW 15:15:27 10° SE daylight
23 Jan - 17:09:01 10° W 17:22:08 20° SW 17:37:23 10° S visible
24 Jan - 08:43:03 10° S 08:49:05 21° SE 08:58:00 10° E daylight
24 Jan - 11:03:57 10° SW 11:13:37 41° SSE 11:30:52 10° ESE daylight
24 Jan - 13:27:53 10° WSW 13:40:51 42° S 14:01:54 10° SE daylight
24 Jan - 15:54:53 10° W 16:09:11 27° SSW 16:27:46 10° SSE daylight
25 Jan - 07:37:58 10° SE 07:38:50 10° SE 07:39:44 10° SE daylight
25 Jan - 09:54:13 10° SW 10:02:07 33° SSE 10:15:42 10° E daylight
25 Jan - 12:17:04 10° WSW 12:28:10 43° S 12:47:30 10° ESE daylight
25 Jan - 14:42:24 10° W 14:56:06 33° SSW 15:16:03 10° SSE daylight
25 Jan - 17:14:15 10° WSW 17:23:54 15° SW 17:34:50 10° SSW visible
26 Jan - 08:45:12 10° SSW 08:51:15 23° SE 09:00:36 10° E daylight
26 Jan - 11:06:44 10° WSW 11:16:01 40° S 11:32:40 10° ESE daylight
26 Jan - 13:30:53 10° WSW 13:43:09 38° SSW 14:02:56 10° SE daylight
26 Jan - 15:58:41 10° WSW 16:11:09 22° SW 16:27:04 10° S daylight
27 Jan - 07:37:49 10° SSE 07:40:55 13° SE 07:44:43 10° ESE daylight
27 Jan - 09:56:51 10° SW 10:04:30 34° SSE 10:17:46 10° ESE daylight
27 Jan - 12:20:00 10° WSW 12:30:34 40° S 12:48:54 10° SE daylight
27 Jan - 14:45:45 10° WSW 14:58:16 28° SSW 15:16:12 10° SSE daylight
28 Jan - 08:47:34 10° SSW 08:53:34 25° SSE 09:03:02 10° ESE daylight
28 Jan - 11:09:35 10° WSW 11:18:29 39° S 11:34:23 10° ESE daylight
28 Jan - 13:34:01 10° WSW 13:45:30 33° SSW 14:03:41 10° SE daylight
28 Jan - 16:03:21 10° WSW 16:13:11 16° SW 16:25:14 10° S daylight
29 Jan - 07:39:21 10° S 07:43:08 15° SE 07:48:05 10° ESE daylight
29 Jan - 09:59:37 10° SW 10:06:58 34° SSE 10:19:47 10° ESE daylight
29 Jan - 12:23:01 10° WSW 12:33:02 36° S 12:50:05 10° SE daylight
29 Jan - 14:49:27 10° WSW 15:00:29 23° SSW 15:15:46 10° S daylight
